EZY808 EGKK-EGPH

Flight info

Callsign EZY808
Flight time 1h 27m
Altitude 32000
Route N0420F320 LAM5P LAM L10 BPK N601 EBOTO N601 INPIP  INPI1E
Aircraft A20N/M-SDFGHIJ1RWXY/S

Departure

Time 2026-04-23 22:12
Airport London Gatwick Airport (EGKK)

Arrival

Time 2026-04-23 23:39
Airport Edinburgh Airport (EGPH)
Time Latitude Longitude Altitude Speed Heading
2026-04-23 21:41 51.15815 -0.17929 207 ft 0 kts 78°
2026-04-23 21:51 51.15813 -0.17940 214 ft 3 kts 78°
2026-04-23 21:52 51.15809 -0.17970 212 ft 3 kts 78°
2026-04-23 21:52 51.15805 -0.17999 217 ft 3 kts 78°
2026-04-23 21:52 51.15801 -0.18028 212 ft 3 kts 78°
2026-04-23 21:52 51.15800 -0.18035 207 ft 0 kts 78°
2026-04-23 22:00 51.15792 -0.18037 216 ft 1 kts 220°
2026-04-23 22:00 51.15778 -0.18065 210 ft 6 kts 229°
2026-04-23 22:00 51.15746 -0.18145 210 ft 11 kts 225°
2026-04-23 22:00 51.15678 -0.18185 217 ft 10 kts 219°
2026-04-23 22:01 51.15653 -0.18270 207 ft 8 kts 256°
2026-04-23 22:01 51.15623 -0.18349 212 ft 10 kts 200°
2026-04-23 22:01 51.15539 -0.18327 207 ft 15 kts 167°
2026-04-23 22:01 51.15358 -0.18265 207 ft 36 kts 166°
2026-04-23 22:02 51.15249 -0.18224 210 ft 0 kts 167°
2026-04-23 22:02 51.15219 -0.18217 207 ft 19 kts 178°
2026-04-23 22:02 51.15176 -0.18314 207 ft 14 kts 272°
2026-04-23 22:02 51.15142 -0.18600 212 ft 29 kts 258°
2026-04-23 22:03 51.15101 -0.18910 217 ft 28 kts 258°
2026-04-23 22:03 51.15059 -0.19216 207 ft 28 kts 257°
2026-04-23 22:03 51.15019 -0.19522 211 ft 29 kts 258°
2026-04-23 22:03 51.14974 -0.19846 212 ft 30 kts 257°
2026-04-23 22:04 51.14930 -0.20175 208 ft 31 kts 258°
2026-04-23 22:04 51.14881 -0.20515 210 ft 32 kts 257°
2026-04-23 22:04 51.14832 -0.20867 210 ft 32 kts 258°
2026-04-23 22:04 51.14804 -0.21077 207 ft 0 kts 257°
2026-04-23 22:05 51.14786 -0.21160 210 ft 23 kts 252°
2026-04-23 22:05 51.14735 -0.21390 213 ft 11 kts 195°
2026-04-23 22:05 51.14632 -0.21335 213 ft 18 kts 154°
2026-04-23 22:06 51.14609 -0.21320 210 ft 0 kts 159°
2026-04-23 22:10 51.14577 -0.21300 207 ft 19 kts 158°
2026-04-23 22:10 51.14528 -0.21065 207 ft 23 kts 86°
2026-04-23 22:11 51.14542 -0.20955 217 ft 0 kts 77°
2026-04-23 22:11 51.14561 -0.20824 208 ft 42 kts 77°
2026-04-23 22:11 51.14676 -0.19992 208 ft 114 kts 77°
2026-04-23 22:11 51.14891 -0.18386 282 ft 169 kts 77°
2026-04-23 22:12 51.15144 -0.16480 823 ft 177 kts 77°
2026-04-23 22:12 51.15401 -0.14681 1975 ft 158 kts 78°
2026-04-23 22:12 51.15645 -0.12944 2685 ft 171 kts 79°
2026-04-23 22:12 51.15921 -0.10944 3025 ft 198 kts 79°
2026-04-23 22:13 51.16240 -0.08624 3295 ft 231 kts 79°
2026-04-23 22:13 51.16853 -0.06187 3971 ft 244 kts 60°
2026-04-23 22:13 51.17859 -0.03938 4622 ft 251 kts 55°
2026-04-23 22:13 51.18940 -0.01735 4939 ft 254 kts 54°
2026-04-23 22:14 51.20026 0.00458 4991 ft 256 kts 54°
2026-04-23 22:14 51.21125 0.02696 5018 ft 257 kts 54°
2026-04-23 22:14 51.21858 0.04199 5023 ft 257 kts 54°
2026-04-23 22:14 51.23315 0.07200 5018 ft 257 kts 54°
2026-04-23 22:15 51.24402 0.09453 5023 ft 257 kts 55°
2026-04-23 22:15 51.25004 0.11090 5016 ft 254 kts 72°
2026-04-23 22:15 51.25415 0.13807 5021 ft 252 kts 78°
2026-04-23 22:15 51.25749 0.16547 5019 ft 253 kts 81°
2026-04-23 22:16 51.26061 0.19330 5018 ft 254 kts 81°
2026-04-23 22:16 51.26372 0.22095 5021 ft 254 kts 80°
2026-04-23 22:16 51.26691 0.24871 5067 ft 254 kts 80°
2026-04-23 22:16 51.27012 0.27643 5065 ft 253 kts 80°
2026-04-23 22:17 51.27441 0.31313 5063 ft 253 kts 80°
2026-04-23 22:17 51.27657 0.33158 5070 ft 253 kts 80°
2026-04-23 22:17 51.28003 0.35910 5063 ft 253 kts 74°
2026-04-23 22:17 51.28937 0.38245 5073 ft 255 kts 40°
2026-04-23 22:18 51.30576 0.39265 5071 ft 262 kts
2026-04-23 22:18 51.32355 0.38564 5065 ft 272 kts 332°
2026-04-23 22:18 51.33935 0.36810 5052 ft 277 kts 327°
2026-04-23 22:18 51.35538 0.35093 5053 ft 277 kts 331°
2026-04-23 22:19 51.37203 0.33582 5014 ft 276 kts 335°
2026-04-23 22:19 51.38931 0.32210 5017 ft 275 kts 338°
2026-04-23 22:19 51.40672 0.30942 5040 ft 275 kts 339°
2026-04-23 22:19 51.42403 0.29745 5039 ft 275 kts 340°
2026-04-23 22:20 51.44174 0.28554 5127 ft 276 kts 340°
2026-04-23 22:20 51.45959 0.27374 5633 ft 279 kts 340°
2026-04-23 22:20 51.47763 0.26188 5975 ft 278 kts 340°
2026-04-23 22:20 51.49543 0.25022 6041 ft 278 kts 340°
2026-04-23 22:21 51.51342 0.23845 6050 ft 278 kts 340°
2026-04-23 22:21 51.53123 0.22682 6045 ft 279 kts 340°
2026-04-23 22:21 51.54929 0.21502 6045 ft 279 kts 340°
2026-04-23 22:21 51.56721 0.20330 6048 ft 279 kts 340°
2026-04-23 22:22 51.58475 0.19182 6045 ft 279 kts 340°
2026-04-23 22:22 51.60257 0.18016 6044 ft 279 kts 340°
2026-04-23 22:22 51.62059 0.16835 6042 ft 279 kts 340°
2026-04-23 22:22 51.63765 0.15713 6045 ft 279 kts 339°
2026-04-23 22:23 51.65380 0.13969 6097 ft 283 kts 316°
2026-04-23 22:23 51.66505 0.11788 6558 ft 287 kts 306°
2026-04-23 22:23 51.67580 0.09051 7428 ft 288 kts 301°
2026-04-23 22:23 51.68574 0.06218 8284 ft 290 kts 300°
2026-04-23 22:24 51.69558 0.03387 9073 ft 294 kts 300°
2026-04-23 22:24 51.70595 0.00501 9898 ft 297 kts 301°
2026-04-23 22:24 51.71665 -0.02353 10636 ft 301 kts 302°
2026-04-23 22:24 51.72802 -0.05285 10984 ft 320 kts 303°
2026-04-23 22:25 51.74034 -0.08393 11250 ft 340 kts 304°
2026-04-23 22:25 51.75566 -0.11366 11492 ft 358 kts 319°
2026-04-23 22:25 51.77603 -0.13884 11804 ft 373 kts 328°
2026-04-23 22:25 51.79851 -0.16062 12344 ft 381 kts 332°
2026-04-23 22:26 51.82202 -0.18117 12928 ft 386 kts 333°
2026-04-23 22:26 51.84617 -0.20194 13584 ft 391 kts 333°
2026-04-23 22:26 51.87029 -0.22315 14228 ft 396 kts 332°
2026-04-23 22:26 51.89422 -0.24486 14826 ft 399 kts 332°
2026-04-23 22:27 51.91864 -0.26762 15465 ft 403 kts 331°
2026-04-23 22:27 51.94276 -0.29052 16084 ft 406 kts 330°
2026-04-23 22:27 51.96739 -0.31415 16708 ft 409 kts 330°
2026-04-23 22:27 51.99179 -0.33767 17317 ft 412 kts 330°
2026-04-23 22:28 52.01641 -0.36145 17921 ft 415 kts 330°
2026-04-23 22:28 52.04156 -0.38575 18502 ft 419 kts 330°
2026-04-23 22:28 52.06677 -0.41011 19051 ft 422 kts 330°
2026-04-23 22:28 52.09207 -0.43456 19553 ft 424 kts 329°
2026-04-23 22:29 52.11720 -0.45887 20044 ft 427 kts 329°
2026-04-23 22:29 52.14290 -0.48375 20540 ft 430 kts 329°
2026-04-23 22:29 52.16884 -0.50889 21033 ft 433 kts 329°
2026-04-23 22:29 52.19479 -0.53408 21514 ft 435 kts 329°
2026-04-23 22:30 52.22092 -0.55948 21994 ft 438 kts 329°
2026-04-23 22:30 52.24721 -0.58507 22473 ft 441 kts 329°
2026-04-23 22:30 52.27330 -0.61050 22947 ft 443 kts 329°
2026-04-23 22:30 52.30000 -0.63657 23396 ft 446 kts 329°
2026-04-23 22:31 52.32672 -0.66269 23846 ft 449 kts 329°
2026-04-23 22:31 52.35372 -0.68912 24244 ft 452 kts 329°
2026-04-23 22:31 52.38091 -0.71576 24602 ft 454 kts 328°
2026-04-23 22:31 52.40790 -0.74224 24966 ft 456 kts 328°
2026-04-23 22:32 52.43518 -0.76904 25346 ft 458 kts 328°
2026-04-23 22:32 52.46262 -0.79602 25708 ft 460 kts 328°
2026-04-23 22:32 52.48996 -0.82295 26046 ft 462 kts 328°
2026-04-23 22:32 52.51762 -0.85024 26395 ft 464 kts 328°
2026-04-23 22:33 52.54535 -0.87765 26777 ft 464 kts 328°
2026-04-23 22:33 52.57315 -0.90517 27109 ft 466 kts 328°
2026-04-23 22:33 52.60099 -0.93276 27442 ft 468 kts 328°
2026-04-23 22:33 52.62883 -0.96040 27809 ft 467 kts 328°
2026-04-23 22:34 52.65629 -0.98770 28330 ft 463 kts 328°
2026-04-23 22:34 52.68412 -1.01542 28817 ft 461 kts 328°
2026-04-23 22:34 52.71152 -1.04276 29337 ft 460 kts 328°
2026-04-23 22:34 52.73847 -1.06968 29773 ft 458 kts 328°
2026-04-23 22:35 52.76573 -1.09695 30260 ft 455 kts 328°
2026-04-23 22:35 52.79279 -1.12408 30662 ft 453 kts 328°
2026-04-23 22:35 52.81950 -1.15089 31007 ft 452 kts 328°
2026-04-23 22:35 52.84643 -1.17797 31368 ft 450 kts 328°
2026-04-23 22:36 52.87309 -1.20481 31777 ft 446 kts 328°
2026-04-23 22:36 52.89953 -1.23146 32132 ft 444 kts 328°
2026-04-23 22:36 52.92601 -1.25820 32404 ft 444 kts 328°
2026-04-23 22:36 52.95254 -1.28503 32450 ft 449 kts 328°
2026-04-23 22:37 53.00579 -1.33896 32449 ft 447 kts 328°
2026-04-23 22:37 53.05862 -1.39261 32452 ft 446 kts 328°
2026-04-23 22:38 53.11174 -1.44672 32452 ft 446 kts 328°
2026-04-23 22:38 53.16447 -1.50057 32450 ft 445 kts 328°
2026-04-23 22:39 53.21729 -1.55469 32449 ft 445 kts 328°
2026-04-23 22:39 53.26997 -1.60882 32453 ft 444 kts 328°
2026-04-23 22:40 53.32243 -1.66290 32454 ft 444 kts 328°
2026-04-23 22:41 53.40123 -1.74451 32450 ft 443 kts 328°
2026-04-23 22:41 53.45370 -1.79904 32449 ft 443 kts 328°
2026-04-23 22:42 53.50573 -1.85324 32445 ft 443 kts 328°
2026-04-23 22:42 53.55842 -1.90827 32447 ft 442 kts 328°
2026-04-23 22:43 53.61060 -1.96291 32450 ft 442 kts 328°
2026-04-23 22:43 53.66279 -2.01780 32452 ft 441 kts 328°
2026-04-23 22:44 53.71493 -2.07282 32453 ft 440 kts 328°
2026-04-23 22:44 53.76889 -2.12300 32455 ft 446 kts 336°
2026-04-23 22:45 53.82673 -2.16303 32455 ft 453 kts 340°
2026-04-23 22:45 53.88556 -2.20123 32445 ft 451 kts 340°
2026-04-23 22:46 53.94393 -2.24016 32454 ft 449 kts 339°
2026-04-23 22:46 54.00163 -2.27963 32447 ft 448 kts 339°
2026-04-23 22:47 54.05911 -2.31938 32446 ft 446 kts 339°
2026-04-23 22:47 54.11666 -2.35933 32450 ft 445 kts 339°
2026-04-23 22:48 54.17370 -2.39899 32457 ft 445 kts 339°
2026-04-23 22:48 54.23109 -2.43889 32453 ft 444 kts 339°
2026-04-23 22:49 54.28807 -2.47861 32448 ft 444 kts 339°
2026-04-23 22:49 54.34546 -2.51873 32447 ft 443 kts 339°
2026-04-23 22:50 54.39287 -2.55197 32451 ft 443 kts 339°
2026-04-23 22:50 54.45924 -2.59866 32446 ft 442 kts 339°
2026-04-23 22:51 54.51624 -2.63888 32447 ft 442 kts 339°
2026-04-23 22:51 54.57301 -2.67911 32118 ft 437 kts 339°
2026-04-23 22:51 54.60095 -2.69898 31868 ft 427 kts 339°
2026-04-23 22:52 54.61902 -2.71184 31739 ft 420 kts 339°
2026-04-23 22:52 54.64590 -2.73101 31561 ft 409 kts 339°
2026-04-23 22:52 54.67190 -2.74956 31378 ft 399 kts 339°
2026-04-23 22:52 54.69723 -2.76764 31204 ft 389 kts 339°
2026-04-23 22:53 54.72165 -2.78506 31035 ft 379 kts 339°
2026-04-23 22:53 54.74582 -2.80232 30869 ft 369 kts 339°
2026-04-23 22:53 54.76945 -2.81921 30596 ft 363 kts 339°
2026-04-23 22:53 54.79263 -2.83581 30192 ft 359 kts 339°
2026-04-23 22:54 54.81565 -2.85233 29737 ft 357 kts 339°
2026-04-23 22:54 54.83838 -2.86865 28965 ft 363 kts 339°
2026-04-23 22:54 54.86228 -2.88583 27984 ft 375 kts 339°
2026-04-23 22:54 54.88679 -2.90348 27102 ft 385 kts 339°
2026-04-23 22:55 54.91160 -2.92141 26595 ft 384 kts 339°
2026-04-23 22:55 54.93570 -2.93886 26398 ft 375 kts 339°
2026-04-23 22:55 54.95962 -2.95620 26170 ft 366 kts 338°
2026-04-23 22:55 54.98327 -2.97335 25439 ft 373 kts 338°
2026-04-23 22:56 55.00766 -2.99102 24545 ft 385 kts 338°
2026-04-23 22:56 55.03262 -3.00914 23585 ft 397 kts 338°
2026-04-23 22:56 55.05850 -3.02797 22509 ft 407 kts 338°
2026-04-23 22:56 55.08496 -3.04725 21477 ft 416 kts 338°
2026-04-23 22:57 55.11167 -3.06674 20800 ft 415 kts 338°
2026-04-23 22:57 55.13809 -3.08606 20502 ft 404 kts 337°
2026-04-23 22:57 55.16329 -3.10453 20368 ft 390 kts 337°
2026-04-23 22:57 55.18816 -3.12276 20134 ft 379 kts 337°
2026-04-23 22:58 55.21245 -3.14052 19378 ft 384 kts 337°
2026-04-23 22:58 55.23747 -3.15865 18362 ft 395 kts 337°
2026-04-23 22:58 55.26326 -3.17711 17246 ft 404 kts 337°
2026-04-23 22:58 55.28954 -3.19580 16135 ft 412 kts 337°
2026-04-23 22:59 55.31623 -3.21474 15232 ft 415 kts 337°
2026-04-23 22:59 55.34297 -3.23363 14498 ft 412 kts 337°
2026-04-23 22:59 55.36954 -3.25235 13755 ft 409 kts 337°
2026-04-23 22:59 55.39584 -3.27086 12958 ft 406 kts 337°
2026-04-23 23:00 55.42176 -3.28910 12203 ft 402 kts 337°
2026-04-23 23:00 55.44769 -3.30732 11463 ft 399 kts 337°
2026-04-23 23:00 55.47334 -3.32531 10817 ft 393 kts 337°
2026-04-23 23:00 55.49839 -3.34286 10499 ft 380 kts 337°
2026-04-23 23:01 55.52239 -3.35960 10450 ft 358 kts 337°
2026-04-23 23:01 55.54481 -3.37518 10448 ft 338 kts 337°
2026-04-23 23:01 55.56628 -3.38974 10446 ft 320 kts 341°
2026-04-23 23:01 55.58749 -3.39486 10449 ft 305 kts
2026-04-23 23:02 55.60751 -3.38633 10454 ft 289 kts 23°
2026-04-23 23:02 55.62480 -3.37001 10447 ft 275 kts 34°
2026-04-23 23:02 55.63932 -3.34866 10458 ft 269 kts 43°
2026-04-23 23:02 55.65251 -3.32613 10463 ft 253 kts 44°
2026-04-23 23:03 55.66451 -3.30480 10467 ft 243 kts 47°
2026-04-23 23:03 55.67525 -3.28172 10457 ft 242 kts 53°
2026-04-23 23:03 55.68521 -3.25750 10449 ft 242 kts 54°
2026-04-23 23:03 55.69494 -3.23341 10448 ft 242 kts 54°
2026-04-23 23:04 55.70473 -3.20908 10449 ft 242 kts 54°
2026-04-23 23:04 55.71454 -3.18464 10449 ft 242 kts 54°
2026-04-23 23:04 55.72431 -3.16025 10454 ft 242 kts 54°
2026-04-23 23:04 55.73402 -3.13597 10457 ft 234 kts 54°
2026-04-23 23:05 55.74301 -3.11344 10297 ft 217 kts 54°
2026-04-23 23:05 55.75167 -3.09173 9733 ft 220 kts 54°
2026-04-23 23:05 55.76166 -3.07100 9156 ft 222 kts 38°
2026-04-23 23:05 55.77549 -3.05889 8625 ft 220 kts 14°
2026-04-23 23:06 55.79017 -3.05288 8160 ft 218 kts 10°
2026-04-23 23:06 55.80506 -3.04788 7699 ft 216 kts
2026-04-23 23:06 55.81973 -3.04321 7245 ft 215 kts
2026-04-23 23:06 55.83469 -3.04198 6779 ft 213 kts
2026-04-23 23:07 55.84936 -3.04188 6314 ft 212 kts 359°
2026-04-23 23:07 55.86399 -3.04219 5851 ft 210 kts 358°
2026-04-23 23:07 55.87838 -3.04273 5512 ft 202 kts 358°
2026-04-23 23:07 55.89221 -3.04336 5170 ft 196 kts 358°
2026-04-23 23:08 55.90570 -3.04404 4768 ft 193 kts 358°
2026-04-23 23:08 55.91910 -3.04476 4345 ft 192 kts 358°
2026-04-23 23:08 55.93241 -3.04549 3925 ft 191 kts 358°
2026-04-23 23:08 55.94579 -3.04624 3504 ft 190 kts 359°
2026-04-23 23:09 55.95894 -3.04698 3117 ft 187 kts 359°
2026-04-23 23:09 55.97127 -3.04768 3017 ft 165 kts 359°
2026-04-23 23:09 55.98187 -3.04830 3004 ft 147 kts 359°
2026-04-23 23:09 55.99205 -3.04887 3000 ft 145 kts 359°
2026-04-23 23:10 56.00211 -3.04943 2993 ft 146 kts 359°
2026-04-23 23:10 56.01231 -3.05000 2992 ft 146 kts 359°
2026-04-23 23:10 56.02250 -3.05057 2989 ft 146 kts 359°
2026-04-23 23:10 56.03267 -3.05134 2990 ft 147 kts 354°
2026-04-23 23:11 56.04211 -3.05766 2983 ft 147 kts 320°
2026-04-23 23:11 56.04712 -3.07300 2989 ft 145 kts 277°
2026-04-23 23:11 56.04529 -3.09040 3002 ft 144 kts 243°
2026-04-23 23:11 56.04044 -3.10585 2999 ft 145 kts 238°
2026-04-23 23:12 56.03520 -3.12130 2992 ft 145 kts 238°
2026-04-23 23:12 56.02995 -3.13686 2988 ft 146 kts 238°
2026-04-23 23:12 56.02470 -3.15234 2990 ft 146 kts 237°
2026-04-23 23:12 56.01950 -3.16763 2991 ft 146 kts 238°
2026-04-23 23:13 56.01423 -3.18310 2988 ft 148 kts 237°
2026-04-23 23:13 56.00858 -3.19972 2979 ft 160 kts 238°
2026-04-23 23:13 56.00275 -3.21692 2989 ft 163 kts 238°
2026-04-23 23:13 55.99688 -3.23426 2993 ft 163 kts 238°
2026-04-23 23:14 55.99107 -3.25143 2962 ft 154 kts 238°
2026-04-23 23:14 55.98576 -3.26710 2978 ft 146 kts 238°
2026-04-23 23:14 55.98074 -3.28208 2743 ft 137 kts 256°
2026-04-23 23:14 55.97759 -3.29863 3292 ft 128 kts 249°
2026-04-23 23:15 55.97194 -3.31108 3045 ft 164 kts 227°
2026-04-23 23:15 55.96275 -3.32809 2879 ft 205 kts 230°
2026-04-23 23:15 55.95501 -3.34625 4010 ft 155 kts 231°
2026-04-23 23:15 55.94814 -3.35995 4766 ft 166 kts 221°
2026-04-23 23:16 55.93759 -3.37732 3783 ft 226 kts 220°
2026-04-23 23:16 55.92590 -3.39450 3791 ft 199 kts 217°
2026-04-23 23:16 55.91586 -3.40915 3944 ft 177 kts 222°
2026-04-23 23:16 55.90663 -3.42447 3668 ft 175 kts 214°
2026-04-23 23:17 55.89556 -3.43341 3222 ft 185 kts 188°
2026-04-23 23:17 55.88225 -3.43193 2668 ft 200 kts 159°
2026-04-23 23:17 55.87117 -3.41813 2503 ft 193 kts 126°
2026-04-23 23:17 55.86410 -3.39763 2225 ft 195 kts 124°
2026-04-23 23:18 55.85568 -3.37923 2185 ft 181 kts 119°
2026-04-23 23:18 55.85236 -3.35900 2082 ft 172 kts 89°
2026-04-23 23:18 55.85554 -3.33684 1972 ft 190 kts 61°
2026-04-23 23:18 55.86320 -3.31577 1780 ft 217 kts 52°
2026-04-23 23:19 55.87328 -3.29650 2351 ft 199 kts 38°
2026-04-23 23:19 55.88474 -3.28484 2502 ft 195 kts 16°
2026-04-23 23:19 55.89874 -3.28289 2332 ft 203 kts 348°
2026-04-23 23:19 55.91251 -3.28968 2207 ft 214 kts 336°
2026-04-23 23:20 55.92602 -3.29950 2343 ft 205 kts 339°
2026-04-23 23:20 55.93900 -3.31009 2405 ft 206 kts 328°
2026-04-23 23:20 55.95122 -3.32467 2274 ft 213 kts 326°
2026-04-23 23:20 55.96159 -3.34111 2729 ft 185 kts 293°
2026-04-23 23:21 55.96176 -3.36337 2439 ft 198 kts 239°
2026-04-23 23:21 55.95460 -3.38601 2145 ft 215 kts 234°
2026-04-23 23:21 55.94576 -3.40629 2425 ft 199 kts 222°
2026-04-23 23:21 55.93411 -3.41578 2624 ft 185 kts 178°
2026-04-23 23:22 55.92147 -3.40692 1922 ft 214 kts 131°
2026-04-23 23:22 55.91320 -3.38855 2784 ft 148 kts 125°
2026-04-23 23:22 55.90846 -3.37622 3256 ft 117 kts 118°
2026-04-23 23:22 55.90477 -3.36067 3033 ft 145 kts 107°
2026-04-23 23:23 55.90543 -3.34477 3522 ft 135 kts 57°
2026-04-23 23:23 55.91386 -3.33294 3535 ft 167 kts 30°
2026-04-23 23:23 55.92394 -3.32470 3779 ft 161 kts 20°
2026-04-23 23:23 55.93556 -3.31830 3349 ft 187 kts 15°
2026-04-23 23:24 55.94845 -3.31381 3339 ft 181 kts
2026-04-23 23:24 55.96001 -3.31189 3712 ft 157 kts
2026-04-23 23:24 55.97112 -3.31221 3583 ft 167 kts 357°
2026-04-23 23:24 55.98328 -3.31380 3382 ft 179 kts 353°
2026-04-23 23:25 55.99535 -3.31801 3438 ft 173 kts 345°
2026-04-23 23:25 56.00639 -3.32421 3570 ft 163 kts 337°
2026-04-23 23:25 56.01597 -3.33523 3483 ft 170 kts 316°
2026-04-23 23:25 56.02428 -3.35157 3229 ft 183 kts 307°
2026-04-23 23:26 56.02953 -3.37151 3292 ft 176 kts 282°
2026-04-23 23:26 56.03021 -3.39311 3304 ft 173 kts 263°
2026-04-23 23:26 56.02796 -3.41406 3319 ft 171 kts 255°
2026-04-23 23:26 56.02478 -3.43446 3322 ft 170 kts 251°
2026-04-23 23:27 56.02134 -3.45489 3291 ft 172 kts 252°
2026-04-23 23:27 56.01748 -3.47502 3249 ft 173 kts 247°
2026-04-23 23:27 56.01275 -3.49465 3288 ft 169 kts 244°
2026-04-23 23:27 56.00731 -3.51308 3343 ft 165 kts 237°
2026-04-23 23:28 56.00043 -3.52921 3368 ft 163 kts 225°
2026-04-23 23:28 55.99180 -3.54282 3295 ft 167 kts 214°
2026-04-23 23:28 55.98178 -3.55317 3326 ft 164 kts 205°
2026-04-23 23:28 55.97128 -3.56083 3349 ft 163 kts 197°
2026-04-23 23:29 55.96038 -3.56597 3306 ft 165 kts 189°
2026-04-23 23:29 55.94894 -3.56767 3280 ft 165 kts 173°
2026-04-23 23:29 55.93809 -3.56182 3321 ft 160 kts 151°
2026-04-23 23:29 55.92948 -3.54980 3375 ft 157 kts 131°
2026-04-23 23:30 55.92330 -3.53370 3357 ft 159 kts 117°
2026-04-23 23:30 55.91916 -3.51563 3403 ft 156 kts 109°
2026-04-23 23:30 55.91511 -3.49801 3455 ft 154 kts 115°
2026-04-23 23:30 55.91040 -3.48051 3375 ft 159 kts 115°
2026-04-23 23:31 55.90853 -3.46201 3367 ft 150 kts 83°
2026-04-23 23:31 55.91378 -3.44498 2624 ft 174 kts 45°
2026-04-23 23:31 55.92378 -3.43229 2157 ft 173 kts 30°
2026-04-23 23:31 55.93295 -3.42010 1883 ft 163 kts 50°
2026-04-23 23:32 55.93940 -3.40399 1548 ft 151 kts 77°
2026-04-23 23:32 55.94369 -3.38698 1116 ft 146 kts 49°
2026-04-23 23:32 55.94884 -3.37260 1148 ft 139 kts 56°
2026-04-23 23:32 55.95527 -3.35998 1309 ft 136 kts 31°
2026-04-23 23:33 55.96458 -3.35640 1437 ft 145 kts 354°
2026-04-23 23:33 55.97387 -3.36416 1548 ft 154 kts 312°
2026-04-23 23:33 55.97818 -3.38156 1769 ft 154 kts 276°
2026-04-23 23:33 55.97768 -3.39408 1898 ft 156 kts 251°
2026-04-23 23:34 55.96865 -3.41501 2046 ft 155 kts 220°
2026-04-23 23:34 55.96052 -3.42634 2193 ft 148 kts 213°
2026-04-23 23:34 55.95101 -3.43650 1939 ft 169 kts 206°
2026-04-23 23:34 55.94402 -3.44225 2122 ft 159 kts 199°
2026-04-23 23:35 55.93196 -3.45266 2504 ft 143 kts 213°
2026-04-23 23:35 55.92671 -3.46095 2408 ft 156 kts 227°
2026-04-23 23:35 55.92009 -3.47727 2345 ft 165 kts 236°
2026-04-23 23:35 55.91348 -3.49287 2649 ft 149 kts 219°
2026-04-23 23:36 55.90383 -3.50031 2561 ft 161 kts 184°
2026-04-23 23:36 55.89302 -3.49577 2561 ft 162 kts 145°
2026-04-23 23:36 55.88674 -3.47999 2649 ft 159 kts 102°
2026-04-23 23:36 55.88871 -3.46137 2646 ft 156 kts 44°
2026-04-23 23:37 55.89900 -3.45778 2249 ft 165 kts 352°
2026-04-23 23:37 55.91012 -3.45966 2123 ft 151 kts
2026-04-23 23:37 55.91857 -3.45212 1953 ft 134 kts 41°
2026-04-23 23:37 55.92547 -3.44052 1540 ft 139 kts 48°
2026-04-23 23:38 55.93127 -3.42731 1226 ft 138 kts 66°
2026-04-23 23:38 55.93648 -3.41189 671 ft 145 kts 64°
2026-04-23 23:38 55.94169 -3.39655 328 ft 145 kts 54°
2026-04-23 23:38 55.94686 -3.38150 126 ft 136 kts 57°
2026-04-23 23:39 55.95131 -3.36833 116 ft 100 kts 59°
2026-04-23 23:39 55.95381 -3.36113 107 ft 49 kts 55°
2026-04-23 23:39 55.95516 -3.35720 113 ft 31 kts 57°
2026-04-23 23:39 55.95564 -3.35520 111 ft 6 kts 132°
2026-04-23 23:40 55.95505 -3.35447 111 ft 13 kts 149°
2026-04-23 23:40 55.95470 -3.35410 112 ft 0 kts 149°
2026-04-23 23:41 55.95409 -3.35366 113 ft 12 kts 187°
2026-04-23 23:41 55.95373 -3.35427 114 ft 6 kts 238°
2026-04-23 23:41 55.95363 -3.35524 114 ft 9 kts 268°
2026-04-23 23:42 55.95349 -3.35652 111 ft 10 kts 240°
2026-04-23 23:42 55.95312 -3.35766 110 ft 11 kts 238°
2026-04-23 23:42 55.95272 -3.35874 110 ft 11 kts 237°
2026-04-23 23:42 55.95233 -3.36015 109 ft 13 kts 250°
2026-04-23 23:43 55.95208 -3.36091 110 ft 5 kts 225°
2026-04-23 23:43 55.95174 -3.36157 111 ft 7 kts 217°
2026-04-23 23:43 55.95124 -3.36140 110 ft 11 kts 133°
2026-04-23 23:43 55.95096 -3.36010 110 ft 11 kts 108°
2026-04-23 23:44 55.95075 -3.35931 111 ft 0 kts 118°
2026-04-23 23:44 55.95075 -3.35930 111 ft 0 kts 118°
2026-04-23 23:44 55.95067 -3.35907 112 ft 10 kts 118°
2026-04-23 23:44 55.95018 -3.35834 110 ft 5 kts 200°
2026-04-23 23:45 55.94977 -3.35858 111 ft 7 kts 181°
2026-04-23 23:45 55.94954 -3.35894 110 ft 12 kts 257°
2026-04-23 23:45 55.94940 -3.35984 109 ft 0 kts 252°